[Iaude] MPEC K99: 2024 KG [a=1.77,e=0.59,i=3.5,H=22.4]
    mpec at cfa.harvard.edu 
    mpec at cfa.harvard.edu
       
    Mon May 27 19:53:57 EDT 2024
    
    
  
M.P.E.C. 2024-K99                                  Issued 2024 May 27, 23:52 UT
     The Minor Planet Electronic Circulars contain information on unusual
         minor planets, routine data on comets and natural satellites,
         and occasional editorial announcements.  They are published
    on behalf of Division F of the International Astronomical Union by the
          Minor Planet Center, Smithsonian Astrophysical Observatory,
                          Cambridge, MA 02138, U.S.A.
			  
             Prepared using the Tamkin Foundation Computer Network
                              MPC at CFA.HARVARD.EDU
            URL https://www.minorplanetcenter.net/    ISSN 1523-6714
                                    2024 KG                                     
Observations:
     K24K00G*1C2024 05 26.29574214 17 51.306-11 28 09.41         18.32GVEK099703
     K24K00G 1C2024 05 26.29799814 17 52.282-11 28 20.64         19.13GVEK099703
     K24K00G 1C2024 05 26.30025314 17 53.203-11 28 30.97         18.19GVEK099703
     K24K00G 1C2024 05 26.30251114 17 54.272-11 28 43.32         18.80GVEK099703
     K24K00G KC2024 05 26.32036614 18 01.789-11 30 10.44         19.05GVEK099I52
     K24K00G KC2024 05 26.32118014 18 02.128-11 30 14.69         18.92GVEK099I52
     K24K00G KC2024 05 26.32199214 18 02.477-11 30 18.40         18.79GVEK099I52
     K24K00G KC2024 05 26.32280414 18 02.812-11 30 22.50         19.12GVEK099I52
     K24K00G KB2024 05 26.58886 14 20 02.51 -11 52 02.5          18.9 GVEK099P13
     K24K00G KB2024 05 26.60474 14 20 08.94 -11 53 17.4          19.0 GVEK099P13
     K24K00G KB2024 05 26.61816 14 20 14.30 -11 54 21.4          19.3 GVEK099P13
     K24K00G KB2024 05 26.62729 14 20 18.02 -11 55 04.5          19.1 GVEK099P13
     K24K00G KC2024 05 26.81712114 21 39.57 -12 09 47.4          18.8 GVEK099L54
     K24K00G KC2024 05 26.82372514 21 42.20 -12 10 20.2          18.6 GVEK099L54
     K24K00G KC2024 05 26.83033014 21 44.82 -12 10 50.8          18.6 GVEK099L54
     K24K00G KC2024 05 26.83694314 21 47.50 -12 11 17.6          18.6 GVEK099L54
     K24K00G KB2024 05 26.83984214 21 48.495-12 11 31.43         19.0 GXEK099M45
     K24K00G KC2024 05 26.84209714 21 50.14 -12 11 42.1          18.9 GXEK099595
     K24K00G KC2024 05 26.84355614 21 50.12 -12 11 49.0          18.6 GVEK099L54
     K24K00G KB2024 05 26.84437814 21 50.284-12 11 52.68         18.5 GXEK099M45
     K24K00G KB2024 05 26.84891714 21 52.099-12 12 13.81         18.6 GXEK099M45
     K24K00G KC2024 05 26.84961814 21 52.61 -12 12 16.0          18.7 GVEK099L54
     K24K00G KC2024 05 26.85472014 21 55.31 -12 12 38.2          18.9 GVEK099104
     K24K00G KC2024 05 26.85601314 21 55.61 -12 12 45.0          19.0 GXEK099595
     K24K00G KC2024 05 26.85803314 21 55.50 -12 12 56.4          18.9 GXEK099L18
     K24K00G KC2024 05 26.86162114 21 58.02 -12 13 09.9          19.1 GVEK099104
     K24K00G KC2024 05 26.86539514 21 58.40 -12 13 29.4          19.5 GXEK099L18
     K24K00G IC2024 05 26.86960714 22 00.93 -12 13 47.0          18.6 GXEK099595
     K24K00G KC2024 05 26.87275614 22 01.30 -12 14 04.3          18.8 GXEK099L18
     K24K00G KB2024 05 26.88399 14 22 06.43 -12 14 53.6          19.6 GXEK099A71
     K24K00G KB2024 05 26.88784 14 22 07.94 -12 15 10.5          18.9 GXEK099A71
     K24K00G KB2024 05 26.89901 14 22 12.68 -12 15 59.6          19.0 GVEK099204
     K24K00G KB2024 05 26.90866 14 22 16.43 -12 16 43.0                VEK099204
     K24K00G 6C2024 05 26.91578 14 22 19.94 -12 17 08.0          19.2 GVEK099Z84
     K24K00G 6C2024 05 26.91849 14 22 20.98 -12 17 20.1          19.0 GVEK099Z84
     K24K00G KB2024 05 26.91921 14 22 20.52 -12 17 30.3                VEK099204
     K24K00G 6C2024 05 26.92118 14 22 22.01 -12 17 32.4          18.9 GVEK099Z84
     K24K00G KB2024 05 27.12302 14 23 44.928-12 32 23.42         18.5 RZEK099H36
     K24K00G KB2024 05 27.12858 14 23 46.980-12 32 46.79         18.9 RZEK099H36
     K24K00G KB2024 05 27.13413 14 23 49.087-12 33 10.15         19.1 RZEK099H36
     K24K00G  C2024 05 27.15675 14 23 58.37 -12 34 45.5          18.3 VtEK099V27
     K24K00G  C2024 05 27.16971 14 24 03.15 -12 35 41.6          18.4 VtEK099V27
     K24K00G KC2024 05 27.18075214 24 07.20 -12 36 28.7          19.0 GXEK099858
     K24K00G KC2024 05 27.18776714 24 09.79 -12 36 59.1          18.8 GXEK099858
     K24K00G KC2024 05 27.19471814 24 12.34 -12 37 28.7          18.8 GXEK099858
     K24K00G KC2024 05 27.25649 14 24 36.166-12 41 57.70         19.6 GVEK099U52
     K24K00G KC2024 05 27.25943 14 24 37.272-12 42 09.90         18.8 GVEK099U52
     K24K00G KC2024 05 27.34531114 25 07.640-12 47 59.86         18.95GVEK099I52
     K24K00G KC2024 05 27.34740414 25 08.425-12 48 08.46         18.98GVEK099I52
     K24K00G KC2024 05 27.34923914 25 09.073-12 48 16.13         18.98GVEK099I52
     K24K00G KC2024 05 27.35429914 25 10.945-12 48 37.01         19.10GVEK099I52
     K24K00G KC2024 05 27.41917 14 25 40.93 -12 51 50.4          19.1 VqEK099E23
     K24K00G KC2024 05 27.43306 14 25 45.89 -12 52 48.0          18.9 VqEK099E23
     K24K00G KC2024 05 27.44695 14 25 50.82 -12 53 46.0          19.0 VqEK099E23
     K24K00G KC2024 05 27.78416 14 27 57.16 -13 16 28.5          18.7 GVEK099M21
     K24K00G KC2024 05 27.79556 14 28 01.01 -13 17 13.5          19.0 GVEK099M21
     K24K00G KC2024 05 27.80823 14 28 05.28 -13 18 03.0          18.8 GVEK099M21
     K24K00G KC2024 05 27.87597 14 28 27.76 -13 23 41.0          18.7 GXEK099G02
     K24K00G KB2024 05 27.87917914 28 29.98 -13 23 49.5          18.8 GXEK099958
     K24K00G KB2024 05 27.88547714 28 32.09 -13 24 13.6          19.2 GXEK099958
     K24K00G KC2024 05 27.88653 14 28 31.36 -13 24 21.8          19.2 GXEK099G02
     K24K00G KB2024 05 27.89174014 28 34.17 -13 24 37.6          18.7 GXEK099958
     K24K00G KC2024 05 27.89710 14 28 34.90 -13 25 02.5          19.2 GXEK099G02
Observer details:
104 San Marcello Pistoiese.  Observers P. Bacci, M. Maestripieri.  Measurers
    P. Bacci, L. Tesi, G. Fagioli.  0.60-m F4 Reflector + CCD.
204 Schiaparelli Observatory.  Observer L. Buzzi.  0.84-m f/3.5 reflector +
    CMO.
595 Farra d'Isonzo.  Observer E. Pettarin.  0.61-m f/4.5 reflector + CCD.
703 Catalina Sky Survey.  Observer G. J. Leonard.  Measurers T. Beuden, V. F.
    Carvajal, D. Fay, J. B. Fazekas, D. C. Fuls, A. R. Gibbs, A. D. Grauer, H.
    Groeller, J. K. Hogan, R. A. Kowalski, S. M. Larson, G. J. Leonard, D.
    Rankin, R. L. Seaman, F. C. Shelly, K. W. Wierzchos.  0.68-m Schmidt + 10K
    CCD.
858 Tebbutt Observatory, Edgewood.  Observer F. B. Zoltowski.  0.51-m f/8.1
    Schmidt-Cassegrain + CCD.
958 Observatoire de Dax.  Observer P. Dupouy.  0.50-m f/4.5 Reflector + CMO.
A71 Stixendorf.  Observers M. Jaeger, E. Prosperi.  Measurer M. Jaeger.
    0.28-m f/2.2 reflector + CMO.
E23 Arcadia.  Observer A. Hidas.  0.35-m f/1.9 reflector + CCD.
G02 KYSUCE Observatory, Kysucke Nove Mesto.  Observer M. Urbanik.  0.40-m
    f/6.8 Corrected Dall-Kirkham + CCD.
H36 Sandlot Observatory, Scranton.  Observer G. Hug.  0.56-m f/4.8 reflector +
    CMO.
I52 Steward Observatory, Mt. Lemmon Station.  Observer R. A. Kowalski.
    Measurers T. Beuden, V. F. Carvajal, D. Fay, J. B. Fazekas, D. C. Fuls, A.
    R. Gibbs, A. D. Grauer, H. Groeller, J. K. Hogan, R. A. Kowalski, S. M.
    Larson, G. J. Leonard, D. Rankin, R. L. Seaman, F. C. Shelly, K. W.
    Wierzchos.  1.0-m prime focus + CCD.
L18 QOS Observatory, Zalistsi.  Observer O. V. Kravchenko.  Measurer A. M.
    Kozhukhov.  0.50-m f/3.8 reflector + CCD.
L54 Berthelot Observatory, Hunedoara.  Observers A. Sonka, A. Nedelcu.
    Measurer A. Sonka.  0.50-m f/8 RC + CCD.
M21 Schiaparelli Southern Observatory, Hakos.  Observers A. Aletti, F.
    Bellini, L. Buzzi, G. Galli.  Measurer G. Galli.  0.36-m f/8.4 reflector +
    CCD.
M45 Starhopper Observatory, Sfantu Gheorghe.  Observer F. Ursache.  0.41-m
    f/7.5 reflector + CMO.
P13 Baihuashan Observatory, Beijing.  Observers Z. Wang, B. Liu.  Measurer Z.
    Wang.  0.28-m f/2.2 reflector + CMO.
U52 Shasta Valley Observatory, Grenada.  Observers J. E. Rogers, B. Haeusler.
    Measurers J. E. Rogers, D. Parrott.  0.30-m f/5.2 Helin Telescope + CCD.
V27 North Mesa Observatory, Los Alamos.  Observer B. K. Kendrick.  0.25-m f/6
    reflector + CCD.
Z84 Calar Alto-Schmidt.  Observers M. Micheli, R. Kresken.  Measurers R.
    Kresken, M. Micheli, F. Ocana, L. Conversi.  0.8-m f/3 Schmidt + CCD.
Orbital elements:
2024 KG                                                  Earth MOID = 0.0143 AU
Epoch 2024 Mar. 31.0 TT = JDT 2460400.5                 Veres                   
M   1.05461              (2000.0)            P               Q                  
n   0.41955142     Peri.   89.29519     -0.90684386     -0.41767842             
a   1.7671737      Node    66.01535     +0.35797612     -0.83392120             
e   0.5946691      Incl.    3.53801     +0.22245746     -0.36072172             
P   2.35           H   22.41          G   0.15           U   8                  
Residuals in seconds of arc
240526 703  0.4-  0.3-    240526 L54  1.3+  0.3+    240527 858  0.1+  0.0
240526 703  0.1-  0.4-    240526 104  0.0   0.2-    240527 858  0.2+  0.2-
240526 703  0.6-  0.4+    240526 595  0.1-  0.4+    240527 858  0.0   0.1+
240526 703  1.0+  0.7-    240526 L18  1.2-  0.2+    240527 U52  0.4+  0.3-
240526 I52  0.2+  0.2+    240526 104  0.2+  0.5-    240527 U52  0.8+  0.0
240526 I52  0.1+  0.1-    240526 L18  1.0-  0.5+    240527 I52  0.0   0.1+
240526 I52  0.1+  0.2+    240526 595  0.0   0.0     240527 I52  0.2+  0.1+
240526 I52  0.0   0.1+    240526 L18  0.7-  1.3-    240527 I52  0.1-  0.0
240526 P13  0.1-  0.2+    240526 A71  0.2+  0.0     240527 I52  0.1+  0.1-
240526 P13  0.1+  0.4+    240526 A71  0.3+  0.5+    240527 E23  0.1-  0.3+
240526 P13  0.7-  0.3-    240526 204  0.1+  0.1-    240527 E23  0.2-  0.6+
240526 P13  0.0   0.5-    240526 204  0.2+  0.1-    240527 E23  0.5-  0.3+
240526 L54  3.1-  0.8+    240526 Z84  0.1+  0.1+    240527 M21  0.4-  0.0
240526 L54  2.6-  1.8-    240526 Z84  0.1+  0.1+    240527 M21  0.5-  0.1-
240526 L54  2.2-  2.3-    240526 204  0.2+  0.2-    240527 M21  0.5-  0.2+
240526 L54  0.9-  1.1+    240526 Z84  0.0   0.1-    240527 G02  0.7+  0.1+
240526 M45  0.3-  0.7+    240527 H36  0.3-  1.2-    240527 958  0.0   0.0
240526 595  0.4-  0.1-    240527 H36  0.7-  0.4-    240527 958  0.2-  0.1+
240526 L54  0.5-  0.2-    240527 H36  0.2-  0.5+    240527 G02  1.1+  0.3-
240526 M45  0.1-  0.0     240527 V27  1.1+  0.1+    240527 958  0.6-  0.2+
240526 M45  0.5+  0.5-    240527 V27  0.7+  0.2+    240527 G02  0.6+  0.6-
Ephemeris:
2024 KG                  a,e,i = 1.77, 0.59, 4                   q = 0.7163
Date    TT    R. A. (2000) Decl.     Delta      r    Elong.  Phase     V
2024 04 27    04 29 16.0 +30 41 58   0.2041  0.8462    34.5   137.6    25.1
...
2024 05 12    07 12 07.8 +38 53 16   0.06409 0.9747    54.8   122.1    21.4
...
2024 05 20    12 50 03.6 +05 51 44   0.05777 1.0494   129.3    48.3    18.1
...
2024 05 26    14 15 36.9 -11 01 55   0.1061  1.1065   150.4    26.9    19.0
2024 05 27    14 22 53.7 -12 22 22   0.1155  1.1161   151.6    25.6    19.1
2024 05 28    14 29 11.7 -13 30 27   0.1250  1.1256   152.5    24.6    19.3
...
2024 06 03    14 54 27.7 -17 45 15   0.1849  1.1830   153.8    22.2    20.2
...
2024 06 11    15 12 57.9 -20 23 38   0.2709  1.2592   151.0    23.0    21.2
...
2024 06 26    15 34 42.8 -22 37 37   0.4493  1.3986   142.1    26.5    22.6
M. P. C. Staff               (C) Copyright 2024 MPC           M.P.E.C. 2024-K99
    
    
More information about the Iaude
mailing list